Powrót do katalogu

FENGYUN 1C DEB

AktywnyLEO
NORAD 31570·DEBRIS·🇨🇳 China

Wystrzelony May 10, 1999 z Taiyuan Satellite Launch Center

Loading…

Następne Przeloty (najbliższe 24 godziny)

TLE

ŚwieżeSource: Space-Track

Epoka: Sep 14, 2026, 06:29 UTC

1 31570U 99025BZM 26257.27055405  .00005609  00000-0  20090-2 0  9994
2 31570 102.5718  60.4900 0140440 251.3781 107.2091 14.29288343672987

Śledź FENGYUN 1C DEB w czasie rzeczywistym z AllMySat

Download on the App Store